| time (UTC) | temp C | wind direction | speed KPH | gust KPH | rain 1hr cm | rain 24hr cm | rain mn cm | humidity % | barometer mb |
| 20260906122017 | 12 | 28 | 1.6 | 6.4 | 0.00 | 0.00 | 0.00 | 94 | 1021.0 |
| 20260906121003 | 12 | 40 | 1.6 | 6.4 | 0.00 | 0.00 | 0.00 | 93 | 1020.9 |
| 20260906120005 | 12 | 45 | 1.6 | 4.8 | 0.00 | 0.00 | 0.00 | 93 | 1020.8 |
| 20260906115008 | 12 | 45 | 3.2 | 4.8 | 0.00 | 0.00 | 0.00 | 93 | 1020.7 |
| 20260906114013 | 12 | 21 | 3.2 | 4.8 | 0.00 | 0.00 | 0.00 | 93 | 1020.7 |
| 20260906113003 | 12 | 21 | 1.6 | 4.8 | 0.00 | 0.00 | 0.00 | 93 | 1020.5 |
| 20260906111959 | 12 | 21 | 3.2 | 6.4 | 0.00 | 0.00 | 0.00 | 93 | 1020.6 |
| 20260906111016 | 12 | 25 | 3.2 | 6.4 | 0.00 | 0.00 | 0.00 | 93 | 1020.5 |
| 20260906110010 | 12 | 30 | 3.2 | 6.4 | 0.00 | 0.00 | 0.00 | 93 | 1020.4 |
| 20260906105004 | 12 | 44 | 1.6 | 6.4 | 0.00 | 0.00 | 0.00 | 92 | 1020.3 |
| 20260906104005 | 12 | 42 | 1.6 | 8.0 | 0.00 | 0.00 | 0.00 | 92 | 1020.4 |
| 20260906103025 | 12 | 42 | 1.6 | 8.0 | 0.00 | 0.00 | 0.00 | 92 | 1020.3 |
| 20260906102024 | 12 | 37 | 3.2 | 6.4 | 0.00 | 0.00 | 0.00 | 92 | 1020.3 |
| 20260906100958 | 12 | 38 | 1.6 | 4.8 | 0.00 | 0.00 | 0.00 | 92 | 1020.3 |
| 20260906100017 | 12 | 38 | 1.6 | 4.8 | 0.00 | 0.00 | 0.00 | 92 | 1020.1 |
| 20260906095015 | 12 | 38 | 1.6 | 4.8 | 0.00 | 0.00 | 0.00 | 91 | 1020.1 |
| 20260906094001 | 12 | 38 | 1.6 | 4.8 | 0.00 | 0.00 | 0.00 | 92 | 1020.0 |
| 20260906093007 | 13 | 60 | 1.6 | 4.8 | 0.00 | 0.00 | 0.00 | 92 | 1020.2 |
| 20260906092003 | 13 | 60 | 1.6 | 4.8 | 0.00 | 0.00 | 0.00 | 91 | 1020.2 |
| 20260906091016 | 13 | 65 | 1.6 | 6.4 | 0.00 | 0.00 | 0.00 | 91 | 1020.1 |
| 20260906090007 | 13 | 64 | 3.2 | 8.0 | 0.00 | 0.00 | 0.00 | 91 | 1019.9 |
| 20260906085007 | 13 | 69 | 3.2 | 6.4 | 0.00 | 0.00 | 0.00 | 90 | 1019.7 |
| 20260906084004 | 13 | 66 | 3.2 | 4.8 | 0.00 | 0.00 | 0.00 | 90 | 1019.6 |
| 20260906083006 | 13 | 74 | 1.6 | 4.8 | 0.00 | 0.00 | 0.00 | 90 | 1019.6 |
| 20260906082013 | 13 | 74 | 1.6 | 4.8 | 0.00 | 0.00 | 0.00 | 90 | 1019.7 |
| 20260906081011 | 13 | 74 | 3.2 | 6.4 | 0.00 | 0.00 | 0.00 | 90 | 1019.6 |
| 20260906080012 | 13 | 67 | 1.6 | 6.4 | 0.00 | 0.00 | 0.00 | 90 | 1019.5 |
| 20260906075000 | 13 | 75 | 3.2 | 8.0 | 0.00 | 0.00 | 0.00 | 90 | 1019.5 |
| 20260906074003 | 14 | 66 | 3.2 | 4.8 | 0.00 | 0.00 | 0.00 | 90 | 1019.2 |
| 20260906073002 | 14 | 65 | 1.6 | 6.4 | 0.00 | 0.00 | 0.00 | 89 | 1019.2 |
| 20260906072005 | 14 | 69 | 3.2 | 4.8 | 0.00 | 0.00 | 0.00 | 89 | 1019.1 |
| 20260906071012 | 14 | 69 | 1.6 | 6.4 | 0.00 | 0.00 | 0.00 | 89 | 1019.4 |
| 20260906065958 | 15 | 51 | 1.6 | 6.4 | 0.00 | 0.00 | 0.00 | 89 | 1019.4 |
| 20260906064958 | 15 | 74 | 3.2 | 6.4 | 0.00 | 0.00 | 0.00 | 89 | 1019.3 |
| 20260906064005 | 15 | 74 | 3.2 | 8.0 | 0.00 | 0.00 | 0.00 | 88 | 1019.4 |
| 20260906063010 | 15 | 82 | 1.6 | 4.8 | 0.00 | 0.00 | 0.00 | 88 | 1019.4 |
| 20260906062016 | 15 | 85 | 3.2 | 4.8 | 0.00 | 0.00 | 0.00 | 88 | 1019.4 |
| 20260906061001 | 15 | 86 | 1.6 | 4.8 | 0.00 | 0.00 | 0.00 | 88 | 1019.5 |
| 20260906060041 | 16 | 86 | 1.6 | 4.8 | 0.00 | 0.00 | 0.00 | 88 | 1019.2 |
| 20260906055022 | 16 | 88 | 1.6 | 6.4 | 0.00 | 0.00 | 0.00 | 88 | 1019.2 |
| 20260906054003 | 16 | 90 | 3.2 | 6.4 | 0.00 | 0.00 | 0.00 | 88 | 1019.4 |
| 20260906053006 | 16 | 96 | 3.2 | 9.7 | 0.00 | 0.00 | 0.00 | 88 | 1019.2 |
| 20260906052001 | 16 | 94 | 6.4 | 9.7 | 0.00 | 0.00 | 0.00 | 88 | 1019.1 |
| 20260906051000 | 16 | 96 | 6.4 | 11.3 | 0.00 | 0.00 | 0.00 | 87 | 1019.0 |
| 20260906050001 | 17 | 92 | 3.2 | 11.3 | 0.00 | 0.00 | 0.00 | 88 | 1019.1 |
| 20260906045009 | 17 | 81 | 8.0 | 16.1 | 0.00 | 0.00 | 0.00 | 88 | 1018.9 |
| 20260906044027 | 17 | 75 | 4.8 | 14.5 | 0.00 | 0.00 | 0.00 | 88 | 1018.8 |
| 20260906043001 | 17 | 91 | 8.0 | 16.1 | 0.00 | 0.00 | 0.00 | 88 | 1018.9 |
| 20260906042001 | 17 | 107 | 4.8 | 12.9 | 0.00 | 0.00 | 0.00 | 88 | 1018.8 |
| 20260906041002 | 18 | 65 | 4.8 | 16.1 | 0.00 | 0.00 | 0.00 | 88 | 1018.6 |
| 20260906040003 | 18 | 86 | 4.8 | 14.5 | 0.00 | 0.00 | 0.00 | 88 | 1018.5 |
| 20260906035003 | 18 | 91 | 6.4 | 14.5 | 0.00 | 0.00 | 0.00 | 88 | 1018.3 |
| 20260906034009 | 18 | 89 | 4.8 | 12.9 | 0.00 | 0.00 | 0.00 | 88 | 1018.3 |
| 20260906033007 | 19 | 90 | 4.8 | 12.9 | 0.00 | 0.00 | 0.00 | 87 | 1018.4 |
| 20260906031959 | 19 | 86 | 3.2 | 9.7 | 0.00 | 0.00 | 0.00 | 86 | 1018.4 |
| 20260906031001 | 20 | 64 | 4.8 | 9.7 | 0.00 | 0.00 | 0.00 | 85 | 1018.3 |
| 20260906030024 | 20 | 89 | 3.2 | 6.4 | 0.00 | 0.00 | 0.00 | 85 | 1018.2 |
| 20260906024959 | 20 | 81 | 3.2 | 9.7 | 0.00 | 0.00 | 0.00 | 84 | 1018.1 |
| 20260906024018 | 20 | 71 | 1.6 | 8.0 | 0.00 | 0.00 | 0.00 | 85 | 1018.0 |
| 20260906023000 | 20 | 86 | 3.2 | 11.3 | 0.00 | 0.00 | 0.00 | 85 | 1018.0 |
| 20260906022002 | 20 | 86 | 4.8 | 12.9 | 0.00 | 0.00 | 0.00 | 85 | 1017.9 |
| 20260906021003 | 20 | 74 | 3.2 | 11.3 | 0.00 | 0.00 | 0.00 | 84 | 1017.8 |
| 20260906020005 | 20 | 80 | 4.8 | 9.7 | 0.00 | 0.00 | 0.00 | 85 | 1017.8 |
| 20260906015027 | 21 | 67 | 4.8 | 9.7 | 0.00 | 0.00 | 0.00 | 86 | 1017.7 |
| 20260906014003 | 21 | 93 | 4.8 | 11.3 | 0.00 | 0.00 | 0.00 | 87 | 1017.5 |
| 20260906013001 | 21 | 61 | 3.2 | 9.7 | 0.00 | 0.00 | 0.00 | 88 | 1017.5 |
| 20260906012016 | 21 | 50 | 3.2 | 11.3 | 0.00 | 0.00 | 0.00 | 87 | 1017.5 |
| 20260906011009 | 21 | 56 | 3.2 | 9.7 | 0.00 | 0.00 | 0.00 | 86 | 1017.4 |
| 20260906010019 | 21 | 81 | 3.2 | 8.0 | 0.00 | 0.00 | 0.00 | 86 | 1017.3 |
| 20260906005004 | 21 | 80 | 3.2 | 12.9 | 0.00 | 0.00 | 0.00 | 86 | 1017.2 |
| 20260906004007 | 21 | 48 | 3.2 | 9.7 | 0.00 | 0.00 | 0.00 | 85 | 1017.0 |
| 20260906003018 | 22 | 20 | 1.6 | 6.4 | 0.00 | 0.00 | 0.00 | 84 | 1016.8 |
| 20260906002003 | 22 | 17 | 1.6 | 4.8 | 0.00 | 0.00 | 0.00 | 84 | 1016.8 |
| 20260906001010 | 22 | 17 | 3.2 | 6.4 | 0.00 | 0.00 | 0.00 | 83 | 1017.0 |
| 20260906000005 | 22 | 19 | 3.2 | 6.4 | 0.00 | 0.00 | 0.00 | 83 | 1016.7 |
| 20260905235005 | 23 | 36 | 1.6 | 4.8 | 0.00 | 0.00 | 0.00 | 82 | 1016.6 |
| 20260905234012 | 23 | 40 | 1.6 | 6.4 | 0.00 | 0.00 | 0.00 | 82 | 1016.7 |
| 20260905233016 | 23 | 49 | 0.0 | 6.4 | 0.00 | 0.00 | 0.00 | 82 | 1016.7 |
| 20260905232026 | 23 | 71 | 3.2 | 6.4 | 0.00 | 0.00 | 0.00 | 82 | 1016.9 |
| 20260905231015 | 23 | 34 | 1.6 | 6.4 | 0.00 | 0.00 | 0.00 | 81 | 1016.6 |
| 20260905230031 | 23 | 36 | 3.2 | 11.3 | 0.00 | 0.00 | 0.00 | 81 | 1016.7 |
| 20260905225003 | 23 | 39 | 3.2 | 9.7 | 0.00 | 0.00 | 0.00 | 80 | 1016.6 |
| 20260905224002 | 24 | 80 | 6.4 | 16.1 | 0.00 | 0.00 | 0.00 | 80 | 1016.5 |
| 20260905223010 | 24 | 101 | 3.2 | 17.7 | 0.00 | 0.00 | 0.00 | 80 | 1016.4 |
| 20260905222005 | 24 | 34 | 3.2 | 16.1 | 0.00 | 0.00 | 0.00 | 81 | 1016.2 |
| 20260905221002 | 24 | 94 | 9.7 | 17.7 | 0.00 | 0.00 | 0.00 | 80 | 1016.1 |
| 20260905220005 | 24 | 71 | 6.4 | 14.5 | 0.00 | 0.00 | 0.00 | 83 | 1016.1 |
| 20260905215006 | 23 | 126 | 8.0 | 17.7 | 0.00 | 0.00 | 0.00 | 86 | 1016.2 |
| 20260905214007 | 23 | 33 | 4.8 | 17.7 | 0.00 | 0.00 | 0.00 | 86 | 1016.3 |
| 20260905213015 | 23 | 46 | 3.2 | 14.5 | 0.00 | 0.00 | 0.00 | 88 | 1016.3 |
| 20260905212006 | 22 | 94 | 3.2 | 12.9 | 0.00 | 0.00 | 0.00 | 88 | 1016.2 |
| 20260905211026 | 22 | 99 | 6.4 | 14.5 | 0.00 | 0.00 | 0.00 | 88 | 1016.0 |
| 20260905210003 | 22 | 85 | 4.8 | 11.3 | 0.00 | 0.00 | 0.00 | 88 | 1016.2 |
| 20260905205004 | 22 | 94 | 3.2 | 9.7 | 0.00 | 0.00 | 0.00 | 88 | 1016.0 |
| 20260905204027 | 22 | 20 | 1.6 | 16.1 | 0.00 | 0.00 | 0.00 | 88 | 1016.1 |
| 20260905203009 | 22 | 34 | 6.4 | 12.9 | 0.00 | 0.00 | 0.00 | 88 | 1016.3 |
| 20260905202016 | 22 | 44 | 4.8 | 20.9 | 0.00 | 0.00 | 0.00 | 88 | 1016.3 |
| 20260905201002 | 22 | 86 | 8.0 | 17.7 | 0.00 | 0.00 | 0.00 | 88 | 1016.6 |
| 20260905200014 | 22 | 90 | 6.4 | 19.3 | 0.00 | 0.00 | 0.00 | 87 | 1016.6 |
| 20260905195024 | 22 | 67 | 8.0 | 20.9 | 0.00 | 0.00 | 0.00 | 88 | 1016.6 |
| 20260905194013 | 22 | 87 | 9.7 | 20.9 | 0.00 | 0.00 | 0.00 | 89 | 1016.5 |
| 20260905193013 | 21 | 69 | 4.8 | 17.7 | 0.00 | 0.00 | 0.00 | 89 | 1016.7 |
| 20260905191024 | 21 | 105 | 6.4 | 20.9 | 0.00 | 0.00 | 0.00 | 89 | 1016.7 |
| 20260905190009 | 21 | 88 | 8.0 | 14.5 | 0.00 | 0.00 | 0.00 | 89 | 1016.7 |
| 20260905185006 | 21 | 57 | 6.4 | 14.5 | 0.00 | 0.00 | 0.00 | 89 | 1016.7 |
| 20260905184009 | 21 | 106 | 4.8 | 11.3 | 0.00 | 0.00 | 0.00 | 89 | 1016.7 |
| 20260905183002 | 21 | 31 | 3.2 | 11.3 | 0.00 | 0.00 | 0.00 | 88 | 1016.6 |
| 20260905182002 | 21 | 32 | 3.2 | 14.5 | 0.00 | 0.00 | 0.00 | 88 | 1016.6 |
| 20260905181007 | 21 | 126 | 3.2 | 11.3 | 0.00 | 0.00 | 0.00 | 89 | 1016.7 |
| 20260905180006 | 21 | 51 | 3.2 | 12.9 | 0.00 | 0.00 | 0.00 | 89 | 1016.7 |
| 20260905175013 | 21 | 104 | 6.4 | 14.5 | 0.00 | 0.00 | 0.00 | 89 | 1016.8 |
| 20260905174001 | 21 | 92 | 8.0 | 17.7 | 0.00 | 0.00 | 0.00 | 89 | 1016.7 |
| 20260905173007 | 21 | 51 | 4.8 | 16.1 | 0.00 | 0.00 | 0.00 | 90 | 1016.8 |
| 20260905172009 | 21 | 93 | 6.4 | 14.5 | 0.00 | 0.00 | 0.00 | 91 | 1016.7 |
| 20260905171019 | 21 | 60 | 3.2 | 9.7 | 0.00 | 0.00 | 0.00 | 91 | 1016.8 |
| 20260905170014 | 21 | 18 | 4.8 | 12.9 | 0.00 | 0.00 | 0.00 | 92 | 1016.8 |
| 20260905165003 | 21 | 91 | 4.8 | 9.7 | 0.00 | 0.05 | 0.00 | 91 | 1016.5 |
| 20260905164014 | 21 | 55 | 4.8 | 8.0 | 0.00 | 0.05 | 0.00 | 92 | 1016.6 |
| 20260905163001 | 21 | 48 | 3.2 | 12.9 | 0.00 | 0.05 | 0.00 | 92 | 1016.9 |
| 20260905162002 | 20 | 49 | 3.2 | 11.3 | 0.00 | 0.05 | 0.00 | 92 | 1016.7 |
| 20260905161002 | 20 | 87 | 1.6 | 12.9 | 0.00 | 0.05 | 0.00 | 93 | 1016.8 |
| 20260905160008 | 20 | 65 | 4.8 | 9.7 | 0.00 | 0.05 | 0.00 | 93 | 1016.7 |
| 20260905155005 | 20 | 35 | 3.2 | 14.5 | 0.00 | 0.15 | 0.00 | 93 | 1016.5 |
| 20260905154003 | 20 | 97 | 8.0 | 14.5 | 0.00 | 0.15 | 0.00 | 93 | 1016.7 |
| 20260905153048 | 20 | 82 | 3.2 | 11.3 | 0.00 | 0.15 | 0.00 | 93 | 1016.4 |
| 20260905152019 | 20 | 28 | 4.8 | 9.7 | 0.00 | 0.15 | 0.00 | 93 | 1016.4 |
| 20260905151010 | 20 | 69 | 4.8 | 9.7 | 0.00 | 0.15 | 0.00 | 92 | 1016.2 |
| 20260905150021 | 20 | 27 | 4.8 | 12.9 | 0.00 | 0.15 | 0.00 | 93 | 1016.5 |
| 20260905145001 | 20 | 97 | 4.8 | 14.5 | 0.00 | 0.66 | 0.00 | 93 | 1016.3 |
| 20260905144002 | 20 | 92 | 4.8 | 16.1 | 0.00 | 0.66 | 0.00 | 93 | 1016.2 |
| 20260905143002 | 20 | 86 | 4.8 | 14.5 | 0.00 | 0.66 | 0.00 | 93 | 1016.1 |
| 20260905142007 | 20 | 97 | 8.0 | 14.5 | 0.00 | 0.66 | 0.00 | 93 | 1016.2 |
| 20260905141005 | 20 | 98 | 4.8 | 14.5 | 0.00 | 0.66 | 0.00 | 93 | 1016.1 |
| 20260905140003 | 20 | 114 | 4.8 | 14.5 | 0.00 | 0.66 | 0.00 | 93 | 1016.1 |
| 20260905135013 | 20 | 36 | 6.4 | 14.5 | 0.00 | 1.52 | 0.00 | 94 | 1015.9 |
| 20260905134002 | 20 | 78 | 6.4 | 14.5 | 0.00 | 1.52 | 0.00 | 94 | 1016.0 |
| 20260905133011 | 20 | 120 | 6.4 | 16.1 | 0.00 | 1.52 | 0.00 | 94 | 1016.0 |
| 20260905132004 | 20 | 58 | 4.8 | 11.3 | 0.00 | 1.52 | 0.00 | 94 | 1015.8 |
| 20260905131012 | 21 | 53 | 6.4 | 14.5 | 0.00 | 1.52 | 0.00 | 94 | 1015.8 |
| 20260905130007 | 21 | 61 | 8.0 | 14.5 | 0.00 | 1.52 | 0.00 | 95 | 1015.7 |
| 20260905125008 | 21 | 107 | 4.8 | 14.5 | 0.00 | 1.68 | 0.00 | 95 | 1015.7 |
| 20260905124017 | 21 | 114 | 8.0 | 16.1 | 0.00 | 1.68 | 0.00 | 95 | 1015.3 |
| 20260905123005 | 21 | 106 | 4.8 | 12.9 | 0.00 | 1.68 | 0.00 | 95 | 1015.3 |